Volver al catálogo

STARLINK-2581

ActivoComunicacionesVLEO
NORAD 48412·PAYLOAD·🇺🇸 United States

Lanzado May 4, 2021 desde Cape Canaveral Space Force Station

Loading…

Próximos Pases (próximas 24 horas)

TLE

ActualizadoSource: CelesTrak SupGP

Época: Sep 14, 2026, 20:24 UTC

1 48412C 21038BM  26257.85048611 -.00024949  00000+0 -80248-3 0  2579
2 48412  53.1566 136.1517 0001258  93.1461  47.3140 15.31706469    13

Sigue STARLINK-2581 en tiempo real con AllMySat

Download on the App Store